EW1578 Weather Reports


time (UTC)temp
F
wind
direction
speed
knots
gust
knots
rain 1hr
in
rain 24hr
in
rain mn
in
humidity
%
barometer
mb
20260504081514 43 281 0.0 1.7 0.00 0.00 0.00 69 1012.9
20260504050008 47 271 0.9 3.5 0.00 0.00 0.00 61 1012.7
20260504044518 46 271 0.0 2.6 0.00 0.00 0.00 63 1012.8
20260504043010 46 275 0.0 0.9 0.00 0.00 0.00 63 1012.7
20260504041507 47 275 0.0 0.0 0.00 0.00 0.00 61 1012.7
20260504040009 48 274 0.0 3.5 0.00 0.00 0.00 59 1012.4
20260504034510 48 277 0.0 3.5 0.00 0.00 0.00 59 1012.2
20260504033009 49 277 0.0 1.7 0.00 0.00 0.00 57 1012.1
20260504031508 50 277 0.0 3.5 0.00 0.00 0.00 56 1012.1
20260504030047 50 261 0.0 1.7 0.00 0.00 0.00 55 1012.0
20260504024544 51 253 0.0 4.3 0.00 0.00 0.00 54 1012.0
20260504023057 51 237 0.0 5.2 0.00 0.00 0.00 53 1012.1
20260504021540 52 261 0.0 4.3 0.00 0.00 0.00 52 1012.0
20260504020040 52 244 1.7 7.8 0.00 0.00 0.00 51 1011.9
20260504014547 52 254 0.0 4.3 0.00 0.00 0.00 51 1012.0
20260504013044 52 251 0.0 4.3 0.00 0.00 0.00 50 1012.0
20260504011537 52 269 0.0 4.3 0.00 0.00 0.00 50 1011.9
20260504010041 53 250 0.0 5.2 0.00 0.00 0.00 51 1011.8
20260504004537 53 253 0.0 3.5 0.00 0.00 0.00 49 1011.6
20260504003036 54 252 0.9 4.3 0.00 0.00 0.00 47 1011.3
20260504001532 55 261 0.0 4.3 0.00 0.00 0.00 45 1011.1
20260504000031 56 263 0.0 7.8 0.00 0.00 0.00 43 1010.9
20260503234539 57 276 0.0 7.0 0.00 0.00 0.00 41 1010.8
20260503233100 58 246 2.6 13.9 0.00 0.00 0.00 40 1010.7
20260503231559 58 263 0.0 7.8 0.00 0.00 0.00 40 1010.7
20260503230028 59 291 3.5 11.3 0.00 0.00 0.00 39 1010.6
20260503224528 60 275 2.6 7.8 0.00 0.00 0.00 39 1010.5
20260503223025 60 317 0.9 10.4 0.00 0.00 0.00 39 1010.4
20260503221526 60 306 1.7 13.9 0.00 0.00 0.00 37 1010.6
20260503220024 60 272 7.0 15.6 0.00 0.00 0.00 37 1010.5
20260503214527 60 254 4.3 10.4 0.00 0.00 0.00 36 1010.5
20260503213106 60 269 1.7 10.4 0.00 0.00 0.00 37 1010.3
20260503211555 59 280 3.5 13.0 0.00 0.00 0.00 37 1010.3
20260503210057 61 311 4.3 13.0 0.00 0.00 0.00 35 1010.4
20260503204552 60 273 6.1 13.9 0.00 0.00 0.00 35 1010.4
20260503203045 61 292 4.3 15.6 0.00 0.00 0.00 36 1010.4
20260503201544 60 348 7.0 15.6 0.00 0.00 0.00 35 1010.5
20260503200044 59 327 1.7 12.2 0.00 0.00 0.00 41 1010.8
20260503194513 59 331 7.0 17.4 0.00 0.00 0.00 37 1011.1
20260503193010 58 273 6.1 13.9 0.00 0.00 0.00 39 1011.3
20260503191503 58 331 5.2 12.2 0.00 0.00 0.00 39 1011.3
20260503190001 58 267 4.3 13.0 0.00 0.00 0.00 43 1011.5
20260503184601 56 306 3.5 12.2 0.00 0.00 0.00 45 1011.7
20260503183114 57 334 7.8 18.2 0.00 0.00 0.00 40 1011.9
20260503181555 55 329 2.6 15.6 0.00 0.00 0.00 39 1011.9
20260503180054 56 292 6.1 15.6 0.00 0.00 0.00 44 1012.0
20260503174551 56 288 1.7 13.9 0.00 0.00 0.00 46 1012.1
20260503173113 55 333 9.6 17.4 0.00 0.00 0.00 41 1012.3
20260503171548 53 321 8.7 16.5 0.00 0.00 0.00 44 1012.4